GW6937 Weather Reports


Display with metric or nautical units.
time (UTC)temp
F
wind
direction
speed
MPH
gust
MPH
rain 1hr
in
rain 24hr
in
rain mn
in
humidity
%
barometer
mb
20260906022042 76 11 0.0 0.0 0.00 0.22 0.22 83 1046.0
20260906021538 76 11 0.0 1.0 0.00 0.22 0.22 84 1045.8
20260906021037 76 10 0.0 0.0 0.00 0.22 0.22 84 1045.9
20260906020537 76 10 0.0 0.0 0.00 0.22 0.22 84 1045.9
20260906020036 76 10 0.0 0.0 0.00 0.22 0.22 83 1045.3
20260906015535 77 10 0.0 0.0 0.00 0.22 0.22 84 1045.6
20260906015029 77 10 0.0 0.0 0.00 0.22 0.22 83 1045.6
20260906014524 77 10 0.0 0.0 0.00 0.22 0.22 83 1045.5
20260906014020 77 10 0.0 0.0 0.00 0.22 0.22 84 1045.6
20260906013515 78 10 0.0 0.0 0.00 0.22 0.22 85 1045.6
20260906013011 78 9 0.0 0.0 0.00 0.22 0.22 85 1045.6
20260906012506 79 9 0.0 1.0 0.00 0.22 0.22 83 1045.5
20260906012005 79 9 1.0 1.0 0.00 0.22 0.22 82 1045.3
20260906011501 79 9 0.0 0.0 0.00 0.22 0.22 85 1045.4
20260906010956 80 9 1.0 1.0 0.00 0.22 0.22 84 1045.2
20260906010452 80 9 0.0 0.0 0.00 0.22 0.22 83 1045.2
20260906005948 80 51 1.0 1.0 0.00 0.22 0.22 82 1045.2
20260906005447 80 51 0.0 1.0 0.00 0.22 0.22 82 1045.1
20260906004946 79 51 1.0 1.0 0.00 0.22 0.22 84 1045.0
20260906004445 79 51 0.0 0.0 0.00 0.22 0.22 84 1045.0
20260906003941 80 51 0.0 0.0 0.00 0.22 0.22 83 1044.9
20260906003441 80 51 0.0 0.0 0.00 0.22 0.22 81 1044.6
20260906002936 81 51 0.0 0.0 0.00 0.22 0.22 79 1044.8
20260906002431 81 51 0.0 0.0 0.00 0.22 0.22 78 1044.9
20260906001926 81 51 1.0 1.0 0.00 0.22 0.22 77 1045.0
20260906001421 81 15 0.0 0.0 0.00 0.22 0.22 79 1045.2
20260906000917 82 14 0.0 0.0 0.00 0.22 0.22 78 1044.9
20260906000412 83 14 0.0 0.0 0.00 0.22 0.22 76 1045.0
20260905235907 83 14 0.0 0.0 0.00 0.22 0.22 75 1045.3
20260905235401 83 14 0.0 0.0 0.00 0.22 0.22 76 1045.3
20260905234856 84 16 0.0 0.0 0.00 0.22 0.22 72 1045.4
20260905234352 84 17 0.0 0.0 0.00 0.22 0.22 74 1045.5
20260905233847 85 17 0.0 0.0 0.00 0.22 0.22 73 1045.5
20260905233342 85 17 0.0 1.0 0.00 0.22 0.22 67 1045.5
20260905232841 86 17 0.0 0.0 0.00 0.22 0.22 69 1045.2
20260905232337 86 17 0.0 0.0 0.00 0.22 0.22 68 1045.1
20260905231833 87 17 1.0 1.0 0.00 0.22 0.22 64 1045.7
20260905231332 87 17 1.0 1.0 0.00 0.22 0.22 66 1045.6
20260905230829 88 17 1.0 1.0 0.00 0.22 0.22 63 1045.7
20260905230327 89 17 1.0 1.0 0.00 0.22 0.22 61 1045.6
20260905225826 91 337 0.0 0.0 0.00 0.22 0.22 58 1045.1
20260905225322 91 336 0.0 0.0 0.00 0.22 0.22 60 1045.7
20260905224821 91 336 0.0 0.0 0.00 0.22 0.22 60 1045.4
20260905224317 92 336 1.0 1.0 0.00 0.22 0.22 54 1045.4
20260905223812 91 336 0.0 0.0 0.00 0.22 0.22 55 1045.5
20260905223310 91 336 1.0 1.0 0.00 0.22 0.22 55 1045.0
20260905222805 92 324 2.0 3.0 0.00 0.22 0.22 55 1045.6
20260905222306 92 337 1.0 3.0 0.00 0.22 0.22 54 1045.5
20260905221800 93 350 2.0 3.0 0.00 0.22 0.22 52 1045.8
20260905221256 93 49 1.0 4.0 0.00 0.22 0.22 50 1045.5
20260905220752 93 352 0.0 2.0 0.00 0.22 0.22 53 1045.5
20260905220248 92 343 3.0 4.0 0.00 0.22 0.22 50 1045.6
20260905215747 93 349 2.0 4.0 0.00 0.22 0.22 51 1045.3
20260905215243 93 9 4.0 4.0 0.00 0.22 0.22 51 1045.5
20260905214738 93 336 2.0 6.0 0.00 0.22 0.22 51 1045.7
20260905214234 93 349 3.0 3.0 0.00 0.22 0.22 51 1045.4
20260905213729 93 341 4.0 6.0 0.00 0.22 0.22 51 1045.4
20260905213226 94 308 4.0 6.0 0.00 0.22 0.22 50 1045.3
20260905212720 94 344 4.0 4.0 0.00 0.22 0.22 47 1044.7
20260905212220 94 279 0.0 3.0 0.00 0.22 0.22 48 1045.1
20260905211719 94 295 5.0 4.0 0.00 0.22 0.22 48 1045.2
20260905211214 94 307 4.0 6.0 0.00 0.22 0.22 48 1045.2
20260905210712 94 269 2.0 4.0 0.00 0.22 0.22 48 1045.3
20260905210212 94 300 3.0 3.0 0.00 0.22 0.22 47 1045.4
20260905205710 94 2 2.0 3.0 0.00 0.22 0.22 47 1045.4
20260905205205 94 295 1.0 4.0 0.00 0.22 0.22 47 1045.4
20260905204704 93 316 2.0 3.0 0.00 0.22 0.22 49 1045.3
20260905204159 93 330 2.0 6.0 0.00 0.22 0.22 50 1045.5
20260905203654 93 330 4.0 4.0 0.00 0.22 0.22 50 1045.3
20260905203150 93 12 1.0 3.0 0.00 0.22 0.22 47 1045.2
20260905202645 94 358 3.0 6.0 0.00 0.22 0.22 48 1045.5
20260905202140 94 316 2.0 3.0 0.00 0.22 0.22 46 1045.5
20260905201636 94 319 4.0 6.0 0.00 0.22 0.22 46 1045.8
20260905201135 94 289 1.0 7.0 0.00 0.22 0.22 50 1045.6
20260905200632 93 323 1.0 2.0 0.00 0.22 0.22 47 1046.0
20260905200127 93 317 3.0 3.0 0.00 0.22 0.22 49 1046.1
20260905195625 93 349 3.0 3.0 0.00 0.22 0.22 46 1046.1
20260905195120 93 333 1.0 6.0 0.00 0.22 0.22 47 1046.0
20260905194620 94 332 4.0 4.0 0.00 0.22 0.22 45 1046.0
20260905194119 93 333 1.0 3.0 0.00 0.22 0.22 49 1046.2
20260905193614 93 341 2.0 6.0 0.00 0.22 0.22 47 1046.3
20260905193109 93 346 2.0 2.0 0.00 0.22 0.22 44 1045.9
20260905192605 94 319 3.0 3.0 0.00 0.22 0.22 47 1046.2
20260905192101 94 306 3.0 4.0 0.00 0.22 0.22 47 1046.5
20260905191559 93 256 3.0 3.0 0.00 0.22 0.22 46 1046.6
20260905191059 93 226 3.0 6.0 0.00 0.22 0.22 47 1046.4
20260905190557 93 231 3.0 6.0 0.00 0.22 0.22 48 1046.6
20260905190057 92 284 4.0 4.0 0.00 0.22 0.22 46 1046.7
20260905185556 93 184 3.0 7.0 0.00 0.22 0.22 47 1046.8
20260905185056 92 224 1.0 3.0 0.00 0.22 0.22 48 1046.9
20260905184550 92 333 3.0 3.0 0.00 0.22 0.22 49 1046.9
20260905184050 92 75 1.0 2.0 0.00 0.22 0.22 45 1046.9
20260905183549 92 272 1.0 3.0 0.00 0.22 0.22 48 1046.9
20260905183044 91 297 2.0 3.0 0.00 0.22 0.22 47 1047.2
20260905182544 91 228 3.0 6.0 0.00 0.22 0.22 48 1047.1
20260905182038 91 189 2.0 4.0 0.00 0.22 0.22 47 1047.4
20260905181533 92 262 2.0 3.0 0.00 0.22 0.22 47 1047.4
20260905181032 91 218 2.0 2.0 0.00 0.22 0.22 52 1047.1
20260905180527 91 285 1.0 2.0 0.00 0.22 0.22 51 1047.6
20260905180023 91 247 2.0 3.0 0.00 0.22 0.22 49 1047.7
20260905175521 91 172 2.0 4.0 0.00 0.22 0.22 48 1046.9
20260905175017 90 74 1.0 1.0 0.00 0.22 0.22 49 1047.7
20260905174513 89 143 0.0 3.0 0.00 0.22 0.22 56 1047.7
20260905174008 90 184 3.0 4.0 0.00 0.22 0.22 50 1047.6
20260905173504 90 152 3.0 3.0 0.00 0.22 0.22 49 1047.4
20260905172959 89 210 2.0 3.0 0.00 0.22 0.22 52 1047.4
20260905172458 89 120 5.0 7.0 0.00 0.22 0.22 50 1047.8
20260905171953 88 171 2.0 6.0 0.00 0.22 0.22 50 1047.8
20260905171450 88 187 5.0 7.0 0.00 0.22 0.22 51 1048.1
20260905170946 88 195 4.0 6.0 0.00 0.22 0.22 53 1047.9
20260905170442 88 198 1.0 4.0 0.00 0.22 0.22 53 1047.8
20260905165941 88 207 2.0 6.0 0.00 0.22 0.22 52 1048.2
20260905165436 88 193 3.0 3.0 0.00 0.22 0.22 54 1048.3
20260905164932 88 181 2.0 4.0 0.00 0.22 0.22 55 1048.4
20260905164426 87 200 2.0 3.0 0.00 0.22 0.22 55 1048.1
20260905163921 87 162 1.0 6.0 0.00 0.22 0.22 55 1048.2
20260905163418 87 207 4.0 4.0 0.00 0.22 0.22 55 1048.1
20260905162914 88 210 6.0 8.0 0.00 0.22 0.22 52 1048.2
20260905162414 87 204 2.0 3.0 0.00 0.22 0.22 55 1048.3
20260905161909 87 207 3.0 3.0 0.00 0.22 0.22 57 1048.3
20260905161408 86 203 3.0 4.0 0.00 0.22 0.22 57 1048.1
20260905160906 86 192 1.0 4.0 0.00 0.22 0.22 55 1048.1
20260905160401 86 183 2.0 7.0 0.00 0.22 0.22 60 1048.4
20260905155855 85 194 2.0 6.0 0.00 0.22 0.22 61 1048.5
20260905155355 85 138 2.0 4.0 0.00 0.22 0.22 59 1048.2
20260905154853 85 198 2.0 3.0 0.00 0.22 0.22 60 1048.4
20260905154349 84 150 4.0 4.0 0.00 0.22 0.22 61 1048.4
20260905153844 85 200 4.0 7.0 0.00 0.22 0.22 61 1048.5
20260905153341 85 136 3.0 6.0 0.00 0.22 0.22 61 1048.5
20260905152840 84 177 1.0 2.0 0.00 0.22 0.22 62 1048.5
20260905152340 84 223 3.0 6.0 0.00 0.22 0.22 63 1048.5
20260905151835 83 234 1.0 2.0 0.00 0.22 0.22 63 1048.8
20260905151331 82 171 0.0 6.0 0.00 0.22 0.22 64 1048.8
20260905150830 82 213 4.0 6.0 0.00 0.22 0.22 62 1049.0
20260905150325 83 217 3.0 4.0 0.00 0.22 0.22 64 1048.7
20260905145822 83 210 2.0 3.0 0.00 0.22 0.22 62 1048.9
20260905145322 84 214 1.0 3.0 0.00 0.22 0.22 60 1049.0
20260905144821 83 228 1.0 2.0 0.00 0.22 0.22 63 1048.7
20260905144317 82 26 0.0 1.0 0.00 0.22 0.22 64 1048.9
20260905143816 82 207 2.0 6.0 0.00 0.22 0.22 67 1048.8
20260905143310 81 245 2.0 2.0 0.00 0.22 0.22 67 1048.9
20260905142809 81 29 1.0 2.0 0.00 0.22 0.22 66 1049.0
20260905142305 81 106 1.0 2.0 0.00 0.22 0.22 66 1048.9
20260905141800 79 55 1.0 1.0 0.00 0.22 0.22 70 1049.2
20260905141255 78 45 4.0 4.0 0.00 0.22 0.22 71 1049.2
20260905140751 78 354 2.0 4.0 0.00 0.22 0.22 74 1049.2
20260905140250 78 187 3.0 3.0 0.00 0.22 0.22 74 1049.2
20260905135749 78 179 2.0 6.0 0.00 0.22 0.22 75 1049.2
20260905135245 77 283 0.0 4.0 0.00 0.22 0.22 79 1049.2
20260905134745 77 126 0.0 3.0 0.00 0.22 0.22 79 1049.2
20260905134245 76 156 0.0 3.0 0.00 0.22 0.22 84 1049.3
20260905133739 74 219 2.0 2.0 0.00 0.22 0.22 84 1049.5
20260905133235 74 175 1.0 2.0 0.00 0.22 0.22 86 1049.6
20260905132733 73 210 1.0 2.0 0.00 0.22 0.22 87 1049.6
20260905132229 73 114 2.0 2.0 0.00 0.22 0.22 87 1049.8
20260905131724 72 276 1.0 2.0 0.00 0.22 0.22 88 1049.7
20260905131220 72 51 0.0 6.0 0.00 0.22 0.22 90 1049.5
20260905130720 72 351 1.0 3.0 0.00 0.22 0.22 90 1049.6
20260905130219 72 326 3.0 3.0 0.00 0.22 0.22 90 1049.7
20260905125714 71 328 2.0 3.0 0.00 0.22 0.22 90 1050.0
20260905125209 71 66 4.0 7.0 0.00 0.22 0.22 90 1049.8
20260905124706 71 339 2.0 4.0 0.00 0.22 0.22 90 1049.8
20260905124202 71 9 3.0 4.0 0.00 0.22 0.22 89 1050.0
20260905123702 71 8 5.0 7.0 0.00 0.22 0.22 89 1050.2
20260905123200 71 12 5.0 7.0 0.00 0.22 0.22 88 1049.8
20260905122659 71 0 7.0 10.0 0.00 0.22 0.22 89 1049.6
20260905122154 71 351 4.0 6.0 0.00 0.22 0.22 92 1049.8
20260905121654 71 189 0.0 2.0 0.00 0.22 0.22 92 1049.3
20260905121150 71 176 0.0 1.0 0.00 0.22 0.22 90 1048.8
20260905120648 71 215 1.0 2.0 0.00 0.22 0.22 90 1049.0
20260905120144 72 352 0.0 1.0 0.00 0.22 0.22 90 1049.2
20260905115643 72 294 1.0 2.0 0.00 0.22 0.22 89 1049.1
20260905115138 73 109 2.0 6.0 0.00 0.22 0.22 88 1048.9
20260905114638 72 65 5.0 9.0 0.00 0.22 0.22 88 1049.3
20260905114136 71 27 2.0 4.0 0.00 0.22 0.22 94 1049.3
20260905113631 71 35 1.0 2.0 0.00 0.22 0.22 93 1049.2
20260905113128 71 267 1.0 6.0 0.00 0.22 0.22 93 1049.0
20260905112627 71 331 2.0 2.0 0.07 0.22 0.22 93 1048.9
20260905112124 71 221 2.0 4.0 0.35 0.22 0.22 93 1048.5
20260905111623 71 19 1.0 4.0 0.28 0.21 0.21 91 1048.1
20260905111123 71 353 2.0 6.0 0.00 0.16 0.16 91 1048.8
20260905110622 71 341 2.0 11.0 0.12 0.16 0.16 92 1048.6
20260905110117 72 3 3.0 13.0 0.12 0.16 0.16 90 1049.3
20260905105617 73 1 5.0 16.0 0.07 0.14 0.14 88 1048.5
20260905105116 74 31 3.0 6.0 0.50 0.14 0.14 91 1048.8
20260905104612 74 48 2.0 8.0 0.59 0.13 0.13 89 1048.9
20260905104107 75 3 6.0 8.0 0.24 0.04 0.04 91 1048.4
20260905103602 76 349 6.0 9.0 0.12 0.02 0.02 89 1048.0
20260905103058 76 342 4.0 7.0 0.00 0.00 0.00 89 1047.7
20260905102554 74 349 3.0 7.0 0.00 0.00 0.00 96 1047.8
20260905102051 73 355 3.0 7.0 0.00 0.00 0.00 97 1047.9
20260905101549 73 349 4.0 4.0 0.00 0.00 0.00 97 1048.3
20260905101047 73 150 1.0 1.0 0.00 0.00 0.00 96 1047.5
20260905100543 73 151 0.0 0.0 0.00 0.00 0.00 97 1047.3
20260905100043 73 151 0.0 0.0 0.00 0.00 0.00 97 1047.4
20260905095537 73 152 0.0 1.0 0.00 0.00 0.00 96 1047.3
20260905095033 73 152 0.0 0.0 0.00 0.00 0.00 96 1047.2
20260905094528 73 151 0.0 0.0 0.00 0.00 0.00 96 1047.2
20260905094027 73 151 0.0 0.0 0.00 0.00 0.00 96 1047.4
20260905093521 73 151 0.0 0.0 0.00 0.00 0.00 96 1047.2
20260905093018 73 151 0.0 0.0 0.00 0.00 0.00 96 1046.9
20260905092518 73 151 0.0 0.0 0.00 0.00 0.00 96 1046.6
20260905092015 73 151 0.0 0.0 0.00 0.00 0.00 96 1046.9
20260905091514 73 151 0.0 0.0 0.00 0.00 0.00 95 1046.8
20260905091013 73 151 0.0 0.0 0.00 0.00 0.00 95 1046.6
20260905090513 73 151 0.0 0.0 0.00 0.00 0.00 95 1046.9
20260905090008 73 151 0.0 0.0 0.00 0.00 0.00 94 1046.8
20260905085506 74 151 0.0 0.0 0.00 0.00 0.00 93 1046.9
20260905085002 74 151 0.0 0.0 0.00 0.00 0.00 92 1046.9
20260905084457 75 151 0.0 0.0 0.00 0.00 0.00 91 1047.1
20260905083957 76 151 0.0 1.0 0.00 0.00 0.00 90 1046.8
20260905083452 76 151 1.0 2.0 0.00 0.00 0.00 90 1046.9
20260905082948 75 154 2.0 2.0 0.00 0.00 0.00 92 1046.8
20260905082444 76 154 0.0 0.0 0.00 0.00 0.00 91 1046.9
20260905081944 76 155 1.0 1.0 0.00 0.00 0.00 90 1046.6
20260905081439 76 164 2.0 2.0 0.00 0.00 0.00 89 1046.7
20260905080939 76 165 2.0 3.0 0.00 0.00 0.00 90 1046.9
20260905080433 75 169 4.0 4.0 0.00 0.00 0.00 92 1046.7
20260905075932 75 161 1.0 2.0 0.00 0.00 0.00 93 1046.9
20260905075427 75 159 1.0 2.0 0.00 0.00 0.00 93 1046.8
20260905074926 75 159 1.0 2.0 0.00 0.00 0.00 93 1046.8
20260905074422 75 159 1.0 2.0 0.00 0.00 0.00 92 1046.6
20260905073917 75 159 1.0 1.0 0.00 0.00 0.00 91 1046.9
20260905073412 75 159 1.0 1.0 0.00 0.00 0.00 92 1046.9
20260905072908 75 159 0.0 0.0 0.00 0.00 0.00 91 1047.4
20260905072402 76 159 1.0 1.0 0.00 0.00 0.00 91 1047.3
20260905071859 75 158 1.0 2.0 0.00 0.00 0.00 91 1047.4
20260905071355 75 158 1.0 1.0 0.00 0.00 0.00 92 1046.8
20260905070854 74 158 1.0 1.0 0.00 0.00 0.00 94 1047.4
20260905070351 74 158 0.0 1.0 0.00 0.00 0.00 93 1047.1
20260905065850 74 158 0.0 0.0 0.00 0.00 0.00 94 1046.9
20260905065349 75 158 0.0 0.0 0.00 0.00 0.00 93 1047.5
20260905064844 75 158 0.0 1.0 0.00 0.00 0.00 94 1047.5
20260905064340 75 158 1.0 1.0 0.00 0.00 0.00 94 1047.2
20260905063838 75 158 1.0 1.0 0.00 0.00 0.00 93 1047.8
20260905063334 75 158 0.0 1.0 0.00 0.00 0.00 94 1047.8
20260905062831 74 146 1.0 1.0 0.00 0.00 0.00 95 1047.9
20260905062330 74 146 1.0 1.0 0.00 0.00 0.00 94 1047.8
20260905061825 74 146 0.0 0.0 0.00 0.00 0.00 94 1048.0
20260905061319 74 146 0.0 0.0 0.00 0.00 0.00 94 1047.9
20260905060814 75 146 0.0 0.0 0.00 0.00 0.00 94 1048.0
20260905060310 74 146 1.0 1.0 0.00 0.00 0.00 94 1048.1
20260905055809 74 146 0.0 0.0 0.00 0.00 0.00 94 1047.9
20260905055306 75 145 0.0 0.0 0.00 0.00 0.00 94 1047.9
20260905054805 75 145 0.0 1.0 0.00 0.00 0.00 94 1047.7
20260905054302 74 145 0.0 0.0 0.00 0.00 0.00 92 1048.2
20260905053800 75 145 0.0 0.0 0.00 0.00 0.00 91 1048.1
20260905053256 75 145 0.0 0.0 0.00 0.00 0.00 91 1048.4
20260905052755 75 146 0.0 0.0 0.00 0.00 0.00 92 1048.4
20260905052250 75 146 0.0 1.0 0.00 0.00 0.00 92 1048.3
20260905051750 75 146 0.0 0.0 0.00 0.00 0.00 91 1048.0
20260905051247 75 146 0.0 1.0 0.00 0.00 0.00 91 1048.4
20260905050743 76 146 0.0 0.0 0.00 0.00 0.00 91 1048.2
20260905050239 76 146 1.0 1.0 0.00 0.00 0.00 91 1048.3
20260905045739 75 145 0.0 1.0 0.00 0.00 0.00 92 1048.2
20260905045234 75 145 0.0 0.0 0.00 0.00 0.00 92 1048.2
20260905044729 76 145 0.0 0.0 0.00 0.00 0.00 91 1048.3
20260905044225 76 145 0.0 0.0 0.00 0.00 0.00 92 1048.3
20260905043723 76 145 0.0 1.0 0.00 0.00 0.00 92 1048.6
20260905043218 75 145 1.0 0.0 0.00 0.00 0.00 93 1047.9
20260905042718 75 145 0.0 0.0 0.00 0.00 0.00 92 1048.3
20260905042217 76 145 0.0 0.0 0.00 0.00 0.00 91 1048.5
20260905041713 76 145 0.0 0.0 0.00 0.00 0.00 92 1048.6
20260905041209 76 145 1.0 1.0 0.00 0.00 0.00 92 1048.3
20260905040703 76 145 0.0 0.0 0.00 0.00 0.00 91 1048.0
20260905040202 76 145 0.0 0.0 0.00 0.00 0.00 90 1048.4
20260905035702 77 145 0.0 0.0 0.00 0.00 0.00 89 1048.4
20260905035159 76 150 1.0 1.0 0.00 0.00 0.00 90 1047.7
20260905034655 76 151 1.0 2.0 0.00 0.00 0.00 91 1048.2
20260905034155 77 153 1.0 2.0 0.00 0.00 0.00 90 1048.4
20260905033653 76 107 1.0 1.0 0.00 0.00 0.00 91 1048.4
20260905033149 76 107 1.0 1.0 0.00 0.00 0.00 90 1048.7
20260905032649 77 90 0.0 0.0 0.00 0.00 0.00 90 1048.6
20260905032144 77 90 0.0 0.0 0.00 0.00 0.00 89 1048.7
20260905031640 77 90 0.0 0.0 0.00 0.00 0.00 89 1048.6
20260905031135 77 90 2.0 1.0 0.00 0.00 0.00 90 1048.5
20260905030630 77 91 1.0 1.0 0.00 0.00 0.00 90 1048.3
20260905030126 77 43 1.0 1.0 0.00 0.00 0.00 89 1048.6
20260905025626 78 34 0.0 1.0 0.00 0.00 0.00 88 1048.7
20260905025122 78 32 0.0 0.0 0.00 0.00 0.00 88 1048.1
20260905024617 77 31 1.0 2.0 0.00 0.00 0.00 89 1048.4
20260905024112 77 120 0.0 0.0 0.00 0.00 0.00 89 1048.4
20260905023608 78 120 0.0 0.0 0.00 0.00 0.00 88 1047.8
20260905023108 78 120 0.0 0.0 0.00 0.00 0.00 86 1047.8
20260905022607 79 120 0.0 1.0 0.00 0.00 0.00 86 1047.8